Torna al catalogo

STARLINK-5536

AttivoComunicazioniVLEO
NORAD 57062·PAYLOAD·🇺🇸 United States

Lanciato Jun 22, 2023 da Vandenberg Space Force Base

Loading…

Prossimi Passaggi (prossime 24 ore)

TLE

AggiornatoSource: CelesTrak SupGP

Epoca: Sep 14, 2026, 14:11 UTC

1 57062C 23088Q   26257.59145833  .00015972  00000+0  57849-3 0  2577
2 57062  42.9990 109.3149 0001440 240.7993 352.8500 15.27570978    10

Traccia STARLINK-5536 in tempo reale con AllMySat

Download on the App Store